Current Version              Previous Version:    01  02  03  04  05  06  07  08  09  10  11  12  13  14  15  16  17  18  19  20  21  22  23  24  25  26  27  28  29  30  
   31  32  33  34  35  36  37  38  39  40  41  42  43  44  45  46  47  48  49  50  51  52  53  54  55  56  57  58  59  60  

[Printable]
090
ASUS44 KLUB 190501
RWRTX
WEST TEXAS WEATHER ROUNDUP
NATIONAL WEATHER SERVICE LUBBOCK TX
1100 PM CST THU DEC 18 2014

NOTE: "FAIR" INDICATES FEW OR NO CLOUDS BELOW 12,000 FEET WITH NO
SIGNIFICANT WEATHER AND/OR OBSTRUCTIONS TO VISIBILITY.

TXZ004-006>008-010-012-014-016-OKZ002-190600-
TEXAS PANHANDLE/OKLAHOMA PANHANDLE

CITY           SKY/WX    TMP DP  RH WIND       PRES   REMARKS
AMARILLO       CLOUDY    35  32  88 E9        30.16R WCI  28
BORGER         CLOUDY    37  30  75 S6        30.17R WCI  32
CANADIAN       CLOUDY    39  38  97 E6        30.18R FOG     WCI  34
DALHART        CLOUDY    30  27  88 CALM      30.15R
DUMAS          CLOUDY    33  31  91 SE5       30.15R WCI  28
GUYMON         CLOUDY    37  31  78 CALM      30.15R
HEREFORD       CLOUDY    36  34  93 E5        30.15R WCI  32
$$

TXZ026-029-035-045-048-190600-
SOUTHERN PANHANDLE/SOUTH PLAINS/ROLLING PLAINS

CITY           SKY/WX    TMP DP  RH WIND       PRES   REMARKS
CHILDRESS      CLOUDY    42  37  82 E5        30.21R
LUBBOCK        CLOUDY    39  36  89 E9        30.14R WCI  33
$$

TXZ052-054-060>062-072-078-127-140-154-169-190600-
PERMIAN BASIN/CONCHO VALLEY/BIG COUNTRY/EDWARDS PLATEAU

CITY           SKY/WX    TMP DP  RH WIND       PRES   REMARKS
ABILENE        CLOUDY    44  39  82 NE7       30.15F
JUNCTION       CLOUDY    58  53  84 E9        30.08R
MIDLAND        CLOUDY    52  34  50 E7        30.09R
ODESSA         CLOUDY    51  33  50 E5        30.09R
SAN ANGELO     CLOUDY    51  43  74 NE9       30.10R
WINK           CLOUDY    52  31  44 W6        30.08R
$$

TXZ055-058-074-075-080-082-190600-
FAR WEST/SOUTHWEST MOUNTAINS/TRANS PECOS

CITY           SKY/WX    TMP DP  RH WIND       PRES   REMARKS
ALPINE         MOCLDY    42  31  64 SW6       30.19R
DRYDEN           N/A     59  39  47 N6        30.05R
EL PASO        MOCLDY    47  38  71 NW8       30.13S
FORT STOCKTON  CLOUDY    49  33  54 SW10      30.10R
MARFA          CLOUDY    43  28  56 N3        30.15S
$$

TXZ014-016-019-021>030-083-190600
TEXAS TECH WEST TEXAS MESONET/TEXAS PANHANDLE/NORTHERN SOUTH PLAINS

CITY           SKY/WX    TMP DP  RH WIND       PRES   REMARKS
ABERNATHY 5ENE   N/A     38  36  94 E9        30.15S WCI  31
AMARILLO 9NNE    N/A     35  31  87 SE7       30.16R WCI  29
AMARILLO 7SSE    N/A     35  32  91 E8        30.16R WCI  28
AMHERST 1NE      N/A     35  34  95 E10       30.14R WCI  28
BOOTLEG 11WNW    N/A     33  31  92 SE12      30.14R WCI  24
CANADIAN 6E      N/A     36  36  99 E6        30.17R WCI  32
CAPROCK CYN SP   N/A     39  37  90 NE2       30.18S
CHILDRESS 2NNE   N/A     40  37  88 NE5       30.19R
CLARENDON 2WSW   N/A     38  34  84 CALM      30.17R
CLAUDE 12SW      N/A     35  33  95 E7        30.15S WCI  29
DIMMITT 2NE      N/A     34  33  94 E12       30.13R WCI  26
FLOYDADA 2NNE    N/A     37  35  92 NE7       30.15R WCI  32
FRIONA 2NE       N/A     34  32  92 SE5       30.15R WCI  30
GOODLETT 3W      N/A     42  38  84 NE3       30.19R
HART 3N          N/A     36  34  95 E10       30.14R WCI  28
HEREFORD 2NW     N/A     35  32  89 E5        30.14R WCI  31
MCLEAN 1E        N/A     37  36  94 SE6       30.15S WCI  33
MEMPHIS 1NE      N/A     41  37  86 E2        30.19S
MULESHOE 2SSW    N/A     36  34  91 E7        30.13R WCI  31
OLTON 6S         N/A     37  34  90 E12       30.14S WCI  29
PALO DURO SP     N/A     36  32  87 S6        30.17R WCI  31
PAMPA 2E         N/A     36  35  94 SE2       30.16R
PLAINVIEW 1S     N/A     37  36  94 E7        30.14S WCI  32
SILVERTON 7ESE   N/A     38  35  91 E7        30.16S WCI  32
TULIA 2ENE       N/A     36  35  97 E8        30.15S WCI  29
TURKEY 2WSW      N/A     40  37  88 E5        30.17S
UMBARGER 3NNE    N/A     34  31  92 E6        30.15R WCI  28
$$

TXZ033>036-039>041-045>048-190600
TEXAS TECH WEST TEXAS MESONET/SOUTH PLAINS

CITY           SKY/WX    TMP DP  RH WIND       PRES   REMARKS
AIKEN 3WSW       N/A     38  35  89 E10       30.16S WCI  31
ANDREWS 2NE      N/A     49  33  54 E8        30.11
ANTON 6SSW       N/A     38  35  89 E8        30.14S WCI  32
BROWNFIELD 2S    N/A     39  35  84 NE7       30.14R WCI  34
DENVR CTY 7WNW   N/A     44  37  77 E9        30.11R
GAIL 2ESE        N/A     40  36  86 NE10      30.13S WCI  34
LAMESA 2SE       N/A     40  37  87 E10       30.11F WCI  34
LEVELLAND 4S     N/A     39  33  79 E8        30.13R WCI  34
LUBBOCK 3WNW     N/A     39  35  86 NE7       30.15R WCI  34
MORTON 1ENE      N/A     39  34  81 E9        30.11S WCI  33
ODONNELL 1N      N/A     38  35  87 NE15      30.12F WCI  30
PLAINS 3N        N/A     44  40  88 CALM      30.11S
RALLS 1SE        N/A     38  36  92 E7        30.16R WCI  33
REESE CENTER     N/A     38  35  88 NE8       30.14R WCI  32
SEAGRAVES 1SW    N/A     43  36  75 NE7       30.12S
SEMINOLE 2NNE    N/A     46  36  67 NE9       30.12R
SLATON 2NE       N/A     39  36  90 NE3       30.15R
SNYDER 3E        N/A     40  37  91 NE13      30.13S WCI  32
SUNDOWN 8SW      N/A     40  36  84 E8        30.12R
TAHOKA 3NNE      N/A     38  35  89 NE12      30.13S WCI  31
WOLFFORTH 6SSW   N/A     39  38  98 E6        30.14R WCI  34
$$

TXZ031-032-036>038-042>044-190600-
TEXAS TECH WEST TEXAS MESONET/ROLLING PLAINS

CITY           SKY/WX    TMP DP  RH WIND       PRES   REMARKS
ASPERMONT 3NE    N/A     42  38  84 NE3       30.18R
FLUVANNA 3WNW    N/A     39  36  90 NE14      30.13S WCI  30
GRAHAM 5SSW      N/A     38  35  89 E13       30.13S WCI  30
GUTHRIE 10WSW    N/A     41  36  84 NE3       30.17R
HASKELL 1NW      N/A     42  37  81 NE7       30.18R
JAYTON 1SSE      N/A     40  36  87 NE3       30.17R
KNOX CITY 3NW    N/A     44  37  77 NE7       30.18F
LK A HENRY 1NW   N/A     40  37  87 NE6       30.15S
NORTHFIELD 1S    N/A     42  38  89 NE3       30.19R
ODELL 4ENE       N/A     42  40  91 NE5       30.20R
PADUCAH 10SW     N/A     41  38  86 NE3       30.18R
POST 1NE         N/A     40  36  87 E9        30.15S WCI  34
RRING SPRGS 3N   N/A     40  37  90 N6        30.16S
SEYMOUR 3NW      N/A     44  39  85 NE2       30.19S
SPUR 1W          N/A     40  35  84 E3        30.15S
WHITE RVR 6NE    N/A     39  35  86 NE7       30.15R WCI  34
$$

TXZ052-054-060>062-072-078-127-140-154-169-190600-
TEXAS TECH WEST TEXAS MESONET/PERMIAN BASIN/
CONCHO VALLEY/BIG COUNTRY/EDWARDS PLATEAU

CITY           SKY/WX    TMP DP  RH WIND       PRES   REMARKS
COYANOSA 2N      N/A     50  33  53 S7        30.09R
JUNCTION 1SSW    N/A     57  50  78 N2        30.08R
MERTZON 3NNE     N/A     51  40  67 NE7       30.11R
SAN ANGELO 7NW   N/A     49  41  72 NE12      30.11R
STRLNG CT 4WSW   N/A     50  39  66 E3        30.12R
ST LAWRNCE 5SW   N/A     49  33  53 E7        30.08S
SWEETWATR 11SW   N/A     41  38  92 NE18      30.13S
WALL 1E          N/A     50  43  76 NE13      30.11S
$$

TXZ055-058-074-075-080-082-190600-
TEXAS TECH WEST TEXAS MESONET/FAR WEST/SOUTHWEST MOUNTAINS/TRANS PECOS

CITY           SKY/WX    TMP DP  RH WIND       PRES   REMARKS
PRSMN GAP BBNP   N/A     53  33  45 NE12      30.07S
$$